カタログに戻る

STARLINK-11207

運用中通信VLEO
NORAD 60933·PAYLOAD·🇺🇸 United States

打ち上げ Aug 31, 2024 から Vandenberg Space Force Base

Loading…

次のパス (今後24時間)

TLE

最新Source: CelesTrak SupGP

元期: Sep 14, 2026, 22:19 UTC

1 60933C 24155K   26257.93034722 -.00051165  00000+0 -42150-3 0  2571
2 60933  53.1564 128.1003 0001229  88.0634  82.7282 15.69732991    17

AllMySatでSTARLINK-11207をリアルタイム追跡

Download on the App Store